STARLINK-11524, 62839

Orbit data source: Space-Track

STARLINK-11524, 62839 is a payload satellite owned by SpaceX/Seattle (US) in LEO that was launched on Mon, 27 Jan 2025 UTC via an FALCON 9 launch vehicle from the Air Force Eastern Test Range (AFETR). Payload-class satellites include a variety of spacecraft equipped with specific instruments for various scientific and technological missions. These include communications satellites like Starlink; space stations such as the ISS; scientific satellites like the Hubble; Earth observation satellites from companies like Planet Labs, Umbra, and HawkEye 360; GPS; miniature CubeSats for education and research; and military/defense satellites.

Loading next visibility...
Identifier
62839, 2025-019L
Orbit
LEO
Country
Flag of USUS
Related business
Manufacturer
SpaceX/Seattle
Mission
Operational Commercial Communications
Bus & Motor
STARLINK V2MD, Unknown motor
Mass
960 kg wet, ~910 kg dry
Launch date (UTC)
2025-01-27 (1 year ago)
Launch vehicle
FALCON 9
Launch site
Air Force Eastern Test Range (AFETR)
Object type
Payload
Rocket body
Debris
Shape & HBR
Box + 2 Pan, 18.1 m
Radar Cross Section
36.964 m², Large (>1 m²)

Expand to show TLE details & history
Last TLE update: 10 hours ago

TLE from 10 hours ago
0 STARLINK-11524
1 62839U 25019L   26035.03614568  .00284679  00000-0  21410-2 0  9990
2 62839  42.9998 149.2167 0001163  13.5112 346.5787 15.70905712 58588
Epoch: 2026-02-04T00:52Z
TLE epoch observation values (Epoch: 2026-02-04T00:52:02.986Z)
Latitude
-0.00001°
Longitude
1.99576°
Altitude
355.317 km
Speed
7.698 km/s
True Right ascension
09h 56m 52s
True Declination
0° 00' 00"
Sunlit
Object was in full shadow at epoch
Visualization orbit readout
Latitude
Unknown
Longitude
Unknown
Altitude
Unknown
Speed
Unknown
Apparent Right ascension
Unknown
Apparent Declination
Unknown
Sunlit
N/A
Visualization observer readout
Local Sidereal Time
13:00:41
Azimuth
Unknown
Elevation
Unknown
Doppler factor
Unknown
Orbital elements
Apogee altitude
359.072 km
Perigee altitude
357.505 km
Semi-major axis
6,736.426 km
Eccentricity
0.00012
Inclination
42.9998°
RAAN
149.2167°
Arg. of periapsis
13.5112°
True anomaly
346.57561°
Mean anomaly
346.5787°
Eccentric anomaly
346.57715°
Mean motion
3.92554 °/min
Orbital period
91.71 mins
BSTAR
0.002141
Loading maneuver chart data...
Computing Atmospheric mass density...
Loading historical data...
Loading historical data...
Loading historical data...
Loading historical data...
Loading historical data...
Loading historical data...
Loading historical data...

Documentation

Showing up to 5 results
|